When you browse on this site, cookies collect data to enhance your experience and personalize the content and advertising you see.
Visit our Privacy Policy to learn more. By continuing to use the site, you agree to this use of cookies and data.
  • In France
  • List of Countries
  • For 7 days
  • Water Temperature
  • Satellite Maps
  • Weather Map
  • Weather Widgets
  • user-avatar
    Login

    Hourly Weather Mitu

    Today, 20 November, Tuesday

    Time Temperature Precipitation Wind Pressure Humidity
    00:00 +23°C° 0.2 mm 0 mps 738 mmHg 98%
    01:00 +23°C° 0 mm 0 mps 738 mmHg 98%
    02:00 +22°C° 0 mm 0 mps 738 mmHg 99%
    03:00 +22°C° 0 mm 0 mps 738 mmHg 99%
    04:00 +22°C° 0 mm 0 mps 737 mmHg 99%
    05:00 +22°C° 0 mm 0 mps 738 mmHg 98%
    06:00 +23°C° 0 mm 0 mps 738 mmHg 97%
    07:00 +24°C° 0 mm 0 mps 739 mmHg 95%
    08:00 +26°C° 0.3 mm 0 mps 739 mmHg 85%
    09:00 +29°C° 0.3 mm 0 mps 739 mmHg 75%
    10:00 +31°C° 0.3 mm 0 mps 739 mmHg 64%
    11:00 +31°C° 1 mm 0 mps 738 mmHg 70%
    12:00 +30°C° 1 mm 0 mps 737 mmHg 75%
    13:00 +30°C° 1 mm 0 mps 737 mmHg 80%
    14:00 +31°C° 1.4 mm 1 mps 736 mmHg 85%
    15:00 +30°C° 1.4 mm 1 mps 736 mmHg 89%
    16:00 +29°C° 1.4 mm 1 mps 736 mmHg 93%
    17:00 +28°C° 0.8 mm 1 mps 736 mmHg 94%
    18:00 +27°C° 0.8 mm 1 mps 737 mmHg 96%
    19:00 +25°C° 0.8 mm 1 mps 737 mmHg 97%
    20:00 +23°C° 0.3 mm 0 mps 738 mmHg 98%
    21:00 +23°C° 0.3 mm 0 mps 738 mmHg 98%
    22:00 +23°C° 0.3 mm 0 mps 738 mmHg 98%
    23:00 +23°C° 0.1 mm 0 mps 738 mmHg 98%

    Tomorrow, 21 November, Wednesday

    Time Temperature Precipitation Wind Pressure Humidity
    00:00 +22°C° 0.1 mm 0 mps 738 mmHg 98%
    01:00 +22°C° 0.1 mm 0 mps 738 mmHg 98%
    02:00 +22°C° 0 mm 0 mps 738 mmHg 99%
    03:00 +22°C° 0 mm 0 mps 738 mmHg 99%
    04:00 +22°C° 0 mm 0 mps 737 mmHg 99%
    05:00 +25°C° 0 mm 1 mps 738 mmHg 98%
    06:00 +25°C° 0 mm 1 mps 739 mmHg 97%
    07:00 +26°C° 0 mm 1 mps 739 mmHg 96%
    08:00 +27°C° 1.5 mm 1 mps 739 mmHg 95%
    09:00 +28°C° 1.5 mm 1 mps 739 mmHg 94%
    10:00 +29°C° 1.5 mm 1 mps 739 mmHg 92%
    11:00 +29°C° 1.1 mm 1 mps 738 mmHg 90%
    12:00 +30°C° 1.1 mm 1 mps 738 mmHg 87%
    13:00 +30°C° 1.1 mm 1 mps 737 mmHg 84%
    14:00 +30°C° 0.9 mm 1 mps 736 mmHg 85%
    15:00 +28°C° 0.9 mm 0 mps 736 mmHg 86%
    16:00 +27°C° 0.9 mm 0 mps 736 mmHg 88%
    17:00 +26°C° 0.6 mm 0 mps 736 mmHg 91%
    18:00 +25°C° 0.6 mm 0 mps 737 mmHg 94%
    19:00 +24°C° 0.6 mm 0 mps 737 mmHg 97%
    20:00 +23°C° 0.1 mm 0 mps 737 mmHg 97%
    21:00 +23°C° 0.1 mm 0 mps 738 mmHg 97%
    22:00 +23°C° 0.1 mm 0 mps 738 mmHg 98%
    23:00 +23°C° 0.1 mm 0 mps 738 mmHg 98%

    Day after tomorrow, 22 November, Thursday

    Time Temperature Precipitation Wind Pressure Humidity
    00:00 +23°C° 0.1 mm 0 mps 738 mmHg 98%
    01:00 +22°C° 0.1 mm 0 mps 737 mmHg 98%
    02:00 +22°C° 0 mm 0 mps 737 mmHg 99%
    03:00 +22°C° 0 mm 0 mps 737 mmHg 99%
    04:00 +22°C° 0 mm 0 mps 737 mmHg 99%
    05:00 +22°C° 0.1 mm 0 mps 737 mmHg 98%
    06:00 +23°C° 0.1 mm 0 mps 738 mmHg 98%
    07:00 +23°C° 0.1 mm 0 mps 738 mmHg 98%
    08:00 +24°C° 0.6 mm 0 mps 738 mmHg 97%
    09:00 +25°C° 0.6 mm 0 mps 739 mmHg 95%
    10:00 +27°C° 0.6 mm 1 mps 739 mmHg 94%
    11:00 +28°C° 0.5 mm 1 mps 738 mmHg 92%
    12:00 +28°C° 0.5 mm 1 mps 737 mmHg 89%
    13:00 +29°C° 0.5 mm 1 mps 737 mmHg 86%
    14:00 +28°C° 0.5 mm 1 mps 736 mmHg 88%
    15:00 +26°C° 0.5 mm 0 mps 736 mmHg 89%
    16:00 +26°C° 0.5 mm 0 mps 735 mmHg 91%
    17:00 +25°C° 0.3 mm 0 mps 736 mmHg 93%
    18:00 +24°C° 0.3 mm 0 mps 736 mmHg 96%
    19:00 +23°C° 0.3 mm 0 mps 737 mmHg 98%
    20:00 +23°C° 0.2 mm 0 mps 737 mmHg 98%
    21:00 +23°C° 0.2 mm 0 mps 738 mmHg 98%
    22:00 +23°C° 0.2 mm 0 mps 738 mmHg 99%
    23:00 +23°C° 0.5 mm 0 mps 738 mmHg 99%

    23 November, Friday

    Time Temperature Precipitation Wind Pressure Humidity
    00:00 +23°C° 0.5 mm 0 mps 737 mmHg 99%
    01:00 +22°C° 0.5 mm 0 mps 737 mmHg 99%
    02:00 +22°C° 0.1 mm 0 mps 736 mmHg 99%
    03:00 +22°C° 0.1 mm 0 mps 736 mmHg 99%
    04:00 +22°C° 0.1 mm 0 mps 736 mmHg 99%
    05:00 +22°C° 0.3 mm 0 mps 737 mmHg 99%
    06:00 +23°C° 0.3 mm 0 mps 737 mmHg 99%
    07:00 +23°C° 0.3 mm 0 mps 738 mmHg 99%
    08:00 +23°C° 0.5 mm 0 mps 738 mmHg 97%
    09:00 +24°C° 0.5 mm 0 mps 738 mmHg 96%
    10:00 +25°C° 0.5 mm 0 mps 739 mmHg 94%
    11:00 +25°C° 0.4 mm 0 mps 738 mmHg 91%
    12:00 +26°C° 0.4 mm 0 mps 737 mmHg 89%
    13:00 +26°C° 0.4 mm 0 mps 736 mmHg 86%
    14:00 +28°C° 0.1 mm 1 mps 736 mmHg 85%
    15:00 +28°C° 0.1 mm 1 mps 735 mmHg 84%
    16:00 +28°C° 0.1 mm 1 mps 734 mmHg 84%
    17:00 +27°C° 0 mm 1 mps 735 mmHg 88%
    18:00 +24°C° 0 mm 0 mps 735 mmHg 92%
    19:00 +23°C° 0 mm 0 mps 736 mmHg 97%
    20:00 +23°C° 0 mm 0 mps 736 mmHg 97%
    21:00 +23°C° 0 mm 0 mps 737 mmHg 97%
    22:00 +22°C° 0 mm 0 mps 737 mmHg 98%
    23:00 +22°C° 0 mm 0 mps 737 mmHg 98%

    24 November, Saturday

    Time Temperature Precipitation Wind Pressure Humidity
    00:00 +22°C° 0 mm 0 mps 736 mmHg 98%
    01:00 +24°C° 0 mm 1 mps 736 mmHg 98%
    02:00 +22°C° 0 mm 0 mps 736 mmHg 98%
    03:00 +22°C° 0 mm 0 mps 736 mmHg 99%
    04:00 +22°C° 0 mm 0 mps 736 mmHg 99%
    05:00 +22°C° 0 mm 0 mps 737 mmHg 96%
    06:00 +25°C° 0 mm 1 mps 737 mmHg 93%
    07:00 +26°C° 0 mm 1 mps 738 mmHg 89%
    08:00 +28°C° 0.1 mm 1 mps 738 mmHg 79%
    09:00 +30°C° 0.1 mm 1 mps 738 mmHg 69%
    10:00 +33°C° 0.1 mm 1 mps 738 mmHg 58%
    11:00 +32°C° 1.6 mm 1 mps 737 mmHg 67%
    12:00 +31°C° 1.6 mm 1 mps 736 mmHg 76%
    13:00 +31°C° 1.6 mm 1 mps 735 mmHg 85%
    14:00 +30°C° 1.6 mm 1 mps 735 mmHg 88%
    15:00 +29°C° 1.6 mm 1 mps 735 mmHg 91%
    16:00 +29°C° 1.6 mm 1 mps 734 mmHg 94%
    17:00 +28°C° 1.5 mm 1 mps 735 mmHg 95%
    18:00 +27°C° 1.5 mm 1 mps 736 mmHg 96%
    19:00 +24°C° 1.5 mm 0 mps 736 mmHg 97%
    20:00 +23°C° 1.3 mm 0 mps 737 mmHg 97%
    21:00 +23°C° 1.3 mm 0 mps 737 mmHg 97%
    22:00 +23°C° 1.3 mm 0 mps 738 mmHg 97%
    23:00 +23°C° 0 mm 0 mps 737 mmHg 98%

    25 November, Sunday

    Time Temperature Precipitation Wind Pressure Humidity
    00:00 +23°C° 0 mm 0 mps 737 mmHg 98%
    01:00 +22°C° 0 mm 0 mps 736 mmHg 98%
    02:00 +22°C° 0 mm 0 mps 736 mmHg 98%
    03:00 +22°C° 0 mm 0 mps 736 mmHg 99%
    04:00 +22°C° 0 mm 0 mps 736 mmHg 99%
    05:00 +25°C° 0 mm 1 mps 737 mmHg 98%
    06:00 +25°C° 0 mm 1 mps 737 mmHg 96%
    07:00 +26°C° 0 mm 1 mps 738 mmHg 95%
    08:00 +28°C° 0 mm 1 mps 738 mmHg 82%
    09:00 +31°C° 0 mm 1 mps 738 mmHg 68%
    10:00 +33°C° 0 mm 1 mps 738 mmHg 54%
    11:00 +34°C° 0.2 mm 2 mps 737 mmHg 57%
    12:00 +34°C° 0.2 mm 2 mps 736 mmHg 59%
    13:00 +34°C° 0.2 mm 2 mps 735 mmHg 61%
    14:00 +32°C° 1 mm 2 mps 735 mmHg 71%
    15:00 +30°C° 1 mm 2 mps 734 mmHg 80%
    16:00 +29°C° 1 mm 1 mps 734 mmHg 90%
    17:00 +28°C° 0.4 mm 1 mps 735 mmHg 92%
    18:00 +27°C° 0.4 mm 1 mps 735 mmHg 95%
    19:00 +25°C° 0.4 mm 1 mps 736 mmHg 97%
    20:00 +23°C° 0 mm 0 mps 736 mmHg 97%
    21:00 +23°C° 0 mm 0 mps 737 mmHg 98%
    22:00 +23°C° 0 mm 0 mps 737 mmHg 98%
    23:00 +23°C° 0 mm 0 mps 737 mmHg 98%
    Show more